This demonstration page uses our WeatherBlox Daily Observations layout. Learn more.

Left ArrowRight Arrow

39.01783, -85.05884

Hourly Observations for September 7, 2017

Temp ( °F °C ) Dew Point ( °F °C ) Humidity (%) Winds ( mph kmh ) Pressure ( in mb ) Visibility ( mi km ) Precip ( " mm )
12:52 am 00:52 Mostly Clear 48 8.9 48 8.9 100 100 WSW 3 6 30.03 1017 10 16 0.00 0.00
1:52 am 01:52 Mostly Clear 48 8.9 48 8.9 100 100 Calm 30.03 1017 10 16 0.00 0.00
2:52 am 02:52 Partly Cloudy 48 8.9 48 8.9 100 100 Calm 30.03 1017 10 16 0.00 0.00
3:52 am 03:52 Partly Cloudy with Mist and Fog 47 8.3 47 8.3 100 100 WSW 3 6 30.03 1017 6 10 0.00 0.00
4:52 am 04:52 Partly Cloudy 49 9.4 48 8.9 97 97 WSW 5 7 30.03 1017 10 16 0.00 0.00
5:52 am 05:52 Mostly Cloudy 46 7.8 46 7.8 100 100 Calm 30.04 1017 10 16 0.00 0.00
6:52 am 06:52 Mostly Cloudy 46 7.8 46 7.8 100 100 SW 3 6 30.05 1018 7 11 0.00 0.00
7:52 am 07:52 Mostly Sunny 48 8.9 48 8.9 100 100 SW 6 9 30.06 1018 10 16 0.00 0.00
8:52 am 08:52 Mostly Sunny 53 11.7 50 10 89 89 WSW 3 6 30.07 1018 10 16 0.00 0.00
9:52 am 09:52 Mostly Sunny 57 13.9 51 10.6 81 81 W 8 13 30.09 1019 10 16 0.00 0.00
10:52 am 10:52 Mostly Sunny 62 16.7 51 10.6 67 67 W 10 17 30.09 1019 10 16 0.00 0.00
11:52 am 11:52 Partly Cloudy 64 17.8 50 10 60 60 W 13 20 30.10 1019 10 16 0.00 0.00
12:52 pm 12:52 Mostly Cloudy 65 18.3 47 8.3 52 52 W 12 19 30.09 1019 10 16 0.00 0.00
1:52 pm 13:52 Mostly Cloudy 66 18.9 48 8.9 52 52 W 13 20 30.09 1019 10 16 0.00 0.00
2:52 pm 14:52 Mostly Cloudy 65 18.3 48 8.9 54 54 W 12 19 30.09 1019 10 16 0.00 0.00
3:52 pm 15:52 Mostly Cloudy 68 20 48 8.9 49 49 W 10 17 30.08 1019 10 16 0.00 0.00
4:52 pm 16:52 Mostly Cloudy 66 18.9 48 8.9 52 52 W 14 22 30.08 1019 10 16 0.00 0.00
5:52 pm 17:52 Partly Cloudy 67 19.4 50 10 55 55 W 7 11 30.07 1018 10 16 0.00 0.00
6:52 pm 18:52 Partly Cloudy 65 18.3 48 8.9 54 54 WSW 6 9 30.07 1018 10 16 0.00 0.00
7:52 pm 19:52 Mostly Cloudy 63 17.2 49 9.4 60 60 WSW 6 9 30.07 1018 10 16 0.00 0.00
8:52 pm 20:52 Mostly Cloudy 61 16.1 50 10 67 67 SW 5 7 30.09 1019 10 16 0.00 0.00
9:52 pm 21:52 Partly Cloudy 58 14.4 50 10 75 75 SSW 5 7 30.11 1020 10 16 0.00 0.00
10:52 pm 22:52 Mostly Cloudy 56 13.3 50 10 81 81 SSW 6 9 30.11 1020 10 16 0.00 0.00
11:52 pm 23:52 Mostly Cloudy 55 12.8 51 10.6 87 87 SSW 7 11 30.12 1020 10 16 0.00 0.00

Powered by AerisWeather